Regional Weather Roundup
Issued by NWS

Home | Current Version | Previous Version | Graphics & Text | Print | Product List | Glossary On
Versions: 1 2 3 4 5 6 7 8 9 10 11 12 13 14 15 16 17 18 19 20 21 22 23 24 25 26 27 28
000
ASUS45 KTFX 051210
RWRMT
MONTANA REGIONAL WEATHER ROUNDUP
NATIONAL WEATHER SERVICE GREAT FALLS MT
500 AM MST MON DEC 05 2016

NOTE: "FAIR" INDICATES FEW OR NO CLOUDS BELOW 12000 FEET WITH NO
SIGNIFICANT WEATHER AND/OR OBSTRUCTIONS TO VISIBILITY.

MTZ001>007-043-051300-
WEST OF THE DIVIDE

CITY           SKY/WX    TMP DP  RH WIND       PRES   REMARKS
KALISPELL      LGT SNOW  22  20  92 CALM      29.88R FOG
MISSOULA       CLOUDY    24  13  62 W13       29.92R WCI  12
BUTTE          CLOUDY    17  -2  43 NW6       29.77R WCI   9
MULLAN PASS    MOCLDY     9   5  84 NW8G17    29.78R WCI  -3
ANACONDA         N/A     19  -2  38 SW5       29.81R
DEER LODGE       N/A     19  10  68 N8        29.83R WCI   9
EUREKA           N/A     25  21  86 CALM      29.89R VSB 1/2
HAMILTON         N/A     25   3  39 E5        29.93R
LIBBY            N/A     21  19  93 CALM      29.89R
RONAN            N/A     25  15  65 CALM      29.94R
$$

MTZ008-052>055-051300-
SOUTHWEST MONTANA

CITY           SKY/WX    TMP DP  RH WIND       PRES   REMARKS
BOZEMAN        CLOUDY    24   8  50 W10       29.76R WCI  14
DILLON         CLOUDY    16   1  51 W18       29.79R WCI   0
W YELLOWSTONE  FLURRIES  14   1  57 W8        29.69R WCI   3
ENNIS          CLOUDY    19   0  42 NW5       29.80S
THREE FORKS      N/A     22  22 100 NW1       29.79R
TWIN BRIDGES     N/A     22  -7  27 S3        29.81R
$$

MTZ009-010-012-014-046-048-049-054-051300-
EAST SLOPES AND CENTRAL MONTANA

CITY           SKY/WX    TMP DP  RH WIND       PRES   REMARKS
CUT BANK       CLOUDY    13   9  84 N18       29.86R WCI  -4
GREAT FALLS    LGT SNOW  18  15  88 NW9       29.86R FOG     WCI   7
MALMSTROM AFB  FLURRIES  19  16  88 NW8       29.87R WCI   8
HELENA         LGT SNOW  20  16  84 W12       29.84R FOG     WCI   8
AUGUSTA        LGT SNOW  16  14  95 N5        29.82R VSB 1
BOWMANS CRNR   LGT SNOW  15  13  92 NW9       29.81R WCI   3
CHOTEAU          N/A     18  14  86 NW8       29.87R FOG     WCI   7
CONRAD           N/A     15  12  88 NW8       29.89R WCI   4
FAIRFIELD      LGT SNOW  17  13  84 NW8       29.84R WCI   7
POWER          FLURRIES  15  12  91 NW12      29.83R WCI   1
RAYNESFORD     LGT SNOW  16  13  88 W10G20    29.82R WCI   4
ULM            LGT SNOW  18  17  95 MISG      29.86R
$$

MTZ011-013-016-021-045-047-050-051-051300-
NORTH CENTRAL MONTANA

CITY           SKY/WX    TMP DP  RH WIND       PRES   REMARKS
HAVRE          CLOUDY    18  12  77 NW22G28   29.85R WCI   1
LEWISTOWN      CLOUDY    16  13  88 NW13      29.76R WCI   2
N BAR RANCH    LGT SNOW  16  12  86 NW21G28   29.70S WCI  -2
CHINOOK          N/A     19  12  73 W15G22    29.83R WCI   5
DENTON         LGT SNOW  17  14  86 NW18G29   29.76R WCI   1
GEYSER         MOCLDY    14  10  83 W9        29.78R WCI   2
GRASS RANGE    FLURRIES  19  14  82 W15G21    29.72R WCI   5
JUDITH GAP     FLURRIES  14  11  88 MISG      29.70R
ROY              N/A     17  14  88 MISG      29.71R
STANFORD       MOCLDY    15  12  88 NW21G26   29.76R WCI  -3
WINIFRED       FLURRIES  16  14  90 MISG      29.77R
$$

MTZ017>020-022>027-061-062-051300-
NORTHEAST MONTANA

CITY           SKY/WX    TMP DP  RH WIND       PRES   REMARKS
GLASGOW        LGT SNOW  22  19  89 NW23      29.69R FOG     WCI   6
JORDAN           N/A     24  17  74 NW17G30   29.70R WCI  11
SIDNEY         CLOUDY    30  26  85 W25       29.53R WCI  16
WOLF POINT     CLOUDY    26  19  74 NW26G35   29.62R WCI  10
PLENTYWOOD       N/A     21  21 100 NW16      29.51R VSB 1   WCI   7
POPLAR           N/A     25  19  80 NW21G29   29.57R WCI  10
SCOBEY           N/A     22  11  62 NW20      29.59R WCI   7
$$

MTZ028>42-056>058-051300-
SOUTHCENTRAL AND SOUTHEAST MONTANA

CITY           SKY/WX    TMP DP  RH WIND       PRES   REMARKS
BAKER          CLOUDY    30  25  81 NW20G26   29.58R WCI  17
BILLINGS       CLOUDY    24  13  62 N12       29.71R WCI  13
LIVINGSTON     CLOUDY    20  13  74 NW6       29.73R WCI  12
MILES CITY     CLOUDY    27  19  72 NW14      29.67R WCI  16
BIG TIMBER     CLOUDY    23  12  63 VRB5      29.73R
EKALAKA          N/A     28  24  85 NW15      29.57S WCI  16
FORSYTH          N/A     25  19  80 W10G24    29.71R WCI  15
HARLOWTON        N/A     16   9  74 NW15      29.73R WCI   1
LAUREL           N/A     24   4  42 NW14      29.73R WCI  12
ROUNDUP          N/A     22   9  57 NW18      29.66R WCI   8
$$

REGIONAL REPORTS...DAKOTAS

CITY           SKY/WX    TMP DP  RH WIND       PRES   REMARKS
WILLISTON      CLOUDY    30  27  88 W10       29.51R WCI  21
MINOT          CLOUDY    20  17  88 CALM      29.53R
DICKINSON      CLOUDY    31  27  85 W17       29.49S WCI  19
BEACH          CLOUDY    28  27  93 W17G28    29.58R WCI  16
CROSBY         LGT SNOW  19  19 100 N10       29.52R WCI   8
TIOGA          CLOUDY    28  28 100 SW16      29.48R WCI  17
WATFORD CITY   CLOUDY    30  30 100 W13       29.51R FOG     WCI  20
BISMARCK       MOCLDY    17  15  92 W8        29.55R WCI   7
GRAND FORKS    CLOUDY    26  24  92 E6        29.69S FOG     WCI  19
FARGO          CLEAR     22  19  89 SE5       29.68F
BUFFALO SD       N/A     33  29  85 NW23      29.46S WCI  21
RAPID CITY     PTCLDY    34  29  82 NW28G36   29.49R WCI  21
$$

REGIONAL REPORTS...WYOMING/IDAHO/WASHINGTON

CITY           SKY/WX    TMP DP  RH WIND       PRES   REMARKS
GILLETTE       LGT SNOW  27  26  96 N16       29.56R FOG     WCI  15
SHERIDAN       LGT SNOW  28  24  85 NW16      29.62R FOG     WCI  16
BUFFALO WY     SNOW      26  22  84 NW14      29.57R VSB 1/2 WCI  14
CODY           LGT SNOW  22  19  89 N18G25    29.62R VSB 1   WCI   7
YELLOWSTONE LA   N/A      9   0  67 W8        29.62R WCI  -3
IDAHO FALLS    CLOUDY    25  11  55 N5        29.87R
SALMON         CLOUDY    18   9  68 CALM      29.93R
BOISE          PTCLDY    24  16  71 NW5       30.09S
SPOKANE        CLEAR     22  17  81 SW14      30.02R WCI   9
$$

REGIONAL REPORTS...ALBERTA

CITY           SKY/WX    TMP DP  RH WIND       PRES   REMARKS
EDMONTON       MOCLDY     1  -6  71 NW14G24   30.04R WCI -17
CALGARY        MOCLDY     3  -4  72 N15       29.92R WCI -15
LETHBRIDGE     CLEAR      5   1  85 N5        29.96R
MEDICINE HAT   CLEAR      7   0  72 NW15G22   29.96R WCI -11
WATERTON GATE    N/A     12   9  85 NE6         N/A  WCI   3
CARDSTON         N/A      9   5  85 N5          N/A
MILK RIVER       N/A      5   1  85 N9          N/A  WCI  -9
$$

REGIONAL REPORTS...SASKATCHEWAN

CITY           SKY/WX    TMP DP  RH WIND       PRES   REMARKS
SWIFT CURRENT  FLURRIES  12   9  85 NW25G33   29.71R WCI  -8
REGINA         CLOUDY    16  14  93 N18       29.62R WCI  -1
SASKATOON      CLOUDY    18  10  73 NW17      29.76R WCI   2
CYPRESS HILLS    N/A      3  -2  78 NW17G30     N/A  WCI -17
VAL MARIE        N/A     18  14  86 N28G37      N/A  WCI  -1
ROCKGLEN         N/A     18  16  93 N20G31      N/A  WCI   1
ASSINIBOIA       N/A      3  -2  78 NW23G33     N/A  WCI -19
$$




USA.gov is the U.S. government's official web portal to all federal, state and local government web resources and services.